Year,Month,Day,Hour,Minute,Value (Times are PST for barometer in hPa)
2013,05,28,00,00,985.74
2013,05,28,00,01,985.74
2013,05,28,00,02,985.64
2013,05,28,00,03,985.64
2013,05,28,00,04,985.64
2013,05,28,00,05,985.64
2013,05,28,00,06,985.64
2013,05,28,00,07,985.64
2013,05,28,00,08,985.64
2013,05,28,00,09,985.64
2013,05,28,00,10,985.64
2013,05,28,00,11,985.64
2013,05,28,00,12,985.64
2013,05,28,00,13,985.64
2013,05,28,00,14,985.64
2013,05,28,00,15,985.64
2013,05,28,00,16,985.64
2013,05,28,00,17,985.64
2013,05,28,00,18,985.64
2013,05,28,00,19,985.64
2013,05,28,00,20,985.64
2013,05,28,00,21,985.64
2013,05,28,00,22,985.64
2013,05,28,00,23,985.64
2013,05,28,00,24,985.64
2013,05,28,00,25,985.64
2013,05,28,00,26,985.64
2013,05,28,00,27,985.64
2013,05,28,00,28,985.64
2013,05,28,00,29,985.64
2013,05,28,00,30,985.64
2013,05,28,00,31,985.64
2013,05,28,00,32,985.84
2013,05,28,00,33,985.84
2013,05,28,00,34,985.84
2013,05,28,00,35,985.84
2013,05,28,00,36,985.84
2013,05,28,00,37,985.84
2013,05,28,00,38,985.84
2013,05,28,00,39,985.84
2013,05,28,00,40,985.84
2013,05,28,00,41,985.84
2013,05,28,00,42,985.84
2013,05,28,00,43,985.84
2013,05,28,00,44,985.84
2013,05,28,00,45,985.84
2013,05,28,00,46,985.84
2013,05,28,00,47,985.88
2013,05,28,00,48,985.88
2013,05,28,00,49,985.88
2013,05,28,00,50,985.88
2013,05,28,00,51,985.88
2013,05,28,00,52,985.88
2013,05,28,00,53,985.88
2013,05,28,00,54,985.88
2013,05,28,00,55,985.88
2013,05,28,00,56,985.88
2013,05,28,00,57,985.88
2013,05,28,00,58,985.88
2013,05,28,00,59,985.88
2013,05,28,01,00,985.88
2013,05,28,01,01,985.88
2013,05,28,01,02,985.95
2013,05,28,01,03,985.95
2013,05,28,01,04,985.95
2013,05,28,01,05,985.95
2013,05,28,01,06,985.95
2013,05,28,01,07,985.95
2013,05,28,01,08,985.95
2013,05,28,01,09,985.95
2013,05,28,01,10,985.95
2013,05,28,01,11,985.95
2013,05,28,01,12,985.95
2013,05,28,01,13,985.95
2013,05,28,01,14,985.95
2013,05,28,01,15,985.95
2013,05,28,01,16,985.95
2013,05,28,01,17,985.98
2013,05,28,01,18,985.98
2013,05,28,01,19,985.98
2013,05,28,01,20,985.98
2013,05,28,01,21,985.98
2013,05,28,01,22,985.98
2013,05,28,01,23,985.98
2013,05,28,01,24,985.98
2013,05,28,01,25,985.98
2013,05,28,01,26,985.98
2013,05,28,01,27,985.98
2013,05,28,01,28,985.98
2013,05,28,01,29,985.98
2013,05,28,01,30,985.98
2013,05,28,01,31,985.98
2013,05,28,01,32,986.01
2013,05,28,01,33,986.01
2013,05,28,01,34,986.01
2013,05,28,01,35,986.01
2013,05,28,01,36,986.01
2013,05,28,01,37,986.01
2013,05,28,01,38,986.01
2013,05,28,01,39,986.01
2013,05,28,01,40,986.01
2013,05,28,01,41,986.01
2013,05,28,01,42,986.01
2013,05,28,01,43,986.01
2013,05,28,01,44,986.01
2013,05,28,01,45,986.01
2013,05,28,01,46,986.01
2013,05,28,01,47,986.01
2013,05,28,01,48,986.01
2013,05,28,01,49,986.01
2013,05,28,01,50,986.01
2013,05,28,01,51,986.01
2013,05,28,01,52,986.01
2013,05,28,01,53,986.01
2013,05,28,01,54,986.01
2013,05,28,01,55,986.01
2013,05,28,01,56,986.01
2013,05,28,01,57,986.01
2013,05,28,01,58,986.01
2013,05,28,01,59,986.01
2013,05,28,02,00,986.01
2013,05,28,02,01,986.01
2013,05,28,02,02,986.08
2013,05,28,02,03,986.08
2013,05,28,02,04,986.08
2013,05,28,02,05,986.08
2013,05,28,02,06,986.08
2013,05,28,02,07,986.08
2013,05,28,02,08,986.08
2013,05,28,02,09,986.08
2013,05,28,02,10,986.08
2013,05,28,02,11,986.08
2013,05,28,02,12,986.08
2013,05,28,02,13,986.08
2013,05,28,02,14,986.08
2013,05,28,02,15,986.08
2013,05,28,02,16,986.08
2013,05,28,02,17,986.08
2013,05,28,02,18,986.08
2013,05,28,02,19,986.08
2013,05,28,02,20,986.08
2013,05,28,02,21,986.08
2013,05,28,02,22,986.08
2013,05,28,02,23,986.08
2013,05,28,02,24,986.08
2013,05,28,02,25,986.08
2013,05,28,02,26,986.08
2013,05,28,02,27,986.08
2013,05,28,02,28,986.08
2013,05,28,02,29,986.08
2013,05,28,02,30,986.08
2013,05,28,02,31,986.08
2013,05,28,02,32,986.05
2013,05,28,02,33,986.05
2013,05,28,02,34,986.05
2013,05,28,02,35,986.05
2013,05,28,02,36,986.05
2013,05,28,02,37,986.05
2013,05,28,02,38,986.05
2013,05,28,02,39,986.05
2013,05,28,02,40,986.05
2013,05,28,02,41,986.05
2013,05,28,02,42,986.05
2013,05,28,02,43,986.05
2013,05,28,02,44,986.05
2013,05,28,02,45,986.05
2013,05,28,02,46,986.05
2013,05,28,02,47,986.08
2013,05,28,02,48,986.08
2013,05,28,02,49,986.08
2013,05,28,02,50,986.08
2013,05,28,02,51,986.08
2013,05,28,02,52,986.08
2013,05,28,02,53,986.08
2013,05,28,02,54,986.08
2013,05,28,02,55,986.08
2013,05,28,02,56,986.08
2013,05,28,02,57,986.08
2013,05,28,02,58,986.08
2013,05,28,02,59,986.08
2013,05,28,03,00,986.08
2013,05,28,03,01,986.08
2013,05,28,03,02,986.22
2013,05,28,03,03,986.22
2013,05,28,03,04,986.22
2013,05,28,03,05,986.22
2013,05,28,03,06,986.22
2013,05,28,03,07,986.22
2013,05,28,03,08,986.22
2013,05,28,03,09,986.22
2013,05,28,03,10,986.22
2013,05,28,03,11,986.22
2013,05,28,03,12,986.22
2013,05,28,03,13,986.22
2013,05,28,03,14,986.22
2013,05,28,03,15,986.22
2013,05,28,03,16,986.22
2013,05,28,03,17,986.42
2013,05,28,03,18,986.42
2013,05,28,03,19,986.42
2013,05,28,03,20,986.42
2013,05,28,03,21,986.42
2013,05,28,03,22,986.42
2013,05,28,03,23,986.42
2013,05,28,03,24,986.42
2013,05,28,03,25,986.42
2013,05,28,03,26,986.42
2013,05,28,03,27,986.42
2013,05,28,03,28,986.42
2013,05,28,03,29,986.42
2013,05,28,03,30,986.42
2013,05,28,03,31,986.42
2013,05,28,03,32,986.49
2013,05,28,03,33,986.49
2013,05,28,03,34,986.49
2013,05,28,03,35,986.49
2013,05,28,03,36,986.49
2013,05,28,03,37,986.49
2013,05,28,03,38,986.49
2013,05,28,03,39,986.49
2013,05,28,03,40,986.49
2013,05,28,03,41,986.49
2013,05,28,03,42,986.49
2013,05,28,03,43,986.49
2013,05,28,03,44,986.49
2013,05,28,03,45,986.49
2013,05,28,03,46,986.49
2013,05,28,03,47,986.52
2013,05,28,03,48,986.52
2013,05,28,03,49,986.52
2013,05,28,03,50,986.52
2013,05,28,03,51,986.52
2013,05,28,03,52,986.52
2013,05,28,03,53,986.52
2013,05,28,03,54,986.52
2013,05,28,03,55,986.52
2013,05,28,03,56,986.52
2013,05,28,03,57,986.52
2013,05,28,03,58,986.52
2013,05,28,03,59,986.52
2013,05,28,04,00,986.52
2013,05,28,04,01,986.52
2013,05,28,04,02,986.52
2013,05,28,04,03,986.52
2013,05,28,04,04,986.52
2013,05,28,04,05,986.52
2013,05,28,04,06,986.52
2013,05,28,04,07,986.52
2013,05,28,04,08,986.52
2013,05,28,04,09,986.52
2013,05,28,04,10,986.52
2013,05,28,04,11,986.52
2013,05,28,04,12,986.52
2013,05,28,04,13,986.52
2013,05,28,04,14,986.52
2013,05,28,04,15,986.52
2013,05,28,04,16,986.52
2013,05,28,04,17,986.52
2013,05,28,04,18,986.52
2013,05,28,04,19,986.52
2013,05,28,04,20,986.52
2013,05,28,04,21,986.52
2013,05,28,04,22,986.52
2013,05,28,04,23,986.52
2013,05,28,04,24,986.52
2013,05,28,04,25,986.52
2013,05,28,04,26,986.52
2013,05,28,04,27,986.52
2013,05,28,04,28,986.52
2013,05,28,04,29,986.52
2013,05,28,04,30,986.52
2013,05,28,04,31,986.52
2013,05,28,04,32,986.52
2013,05,28,04,33,986.52
2013,05,28,04,34,986.52
2013,05,28,04,35,986.52
2013,05,28,04,36,986.52
2013,05,28,04,37,986.52
2013,05,28,04,38,986.52
2013,05,28,04,39,986.52
2013,05,28,04,40,986.52
2013,05,28,04,41,986.52
2013,05,28,04,42,986.52
2013,05,28,04,43,986.52
2013,05,28,04,44,986.52
2013,05,28,04,45,986.52
2013,05,28,04,46,986.52
2013,05,28,04,47,986.52
2013,05,28,04,48,986.52
2013,05,28,04,49,986.52
2013,05,28,04,50,986.52
2013,05,28,04,51,986.52
2013,05,28,04,52,986.52
2013,05,28,04,53,986.52
2013,05,28,04,54,986.52
2013,05,28,04,55,986.52
2013,05,28,04,56,986.52
2013,05,28,04,57,986.52
2013,05,28,04,58,986.52
2013,05,28,04,59,986.52
2013,05,28,05,00,986.52
2013,05,28,05,01,986.52
2013,05,28,05,02,986.56
2013,05,28,05,03,986.56
2013,05,28,05,04,986.56
2013,05,28,05,05,986.56
2013,05,28,05,06,986.56
2013,05,28,05,07,986.56
2013,05,28,05,08,986.56
2013,05,28,05,09,986.56
2013,05,28,05,10,986.56
2013,05,28,05,11,986.56
2013,05,28,05,12,986.56
2013,05,28,05,13,986.56
2013,05,28,05,14,986.56
2013,05,28,05,15,986.56
2013,05,28,05,16,986.56
2013,05,28,05,17,986.56
2013,05,28,05,18,986.56
2013,05,28,05,19,986.56
2013,05,28,05,20,986.56
2013,05,28,05,21,986.56
2013,05,28,05,22,986.56
2013,05,28,05,23,986.56
2013,05,28,05,24,986.56
2013,05,28,05,25,986.56
2013,05,28,05,26,986.56
2013,05,28,05,27,986.56
2013,05,28,05,28,986.56
2013,05,28,05,29,986.56
2013,05,28,05,30,986.56
2013,05,28,05,31,986.56
2013,05,28,05,32,986.56
2013,05,28,05,33,986.56
2013,05,28,05,34,986.56
2013,05,28,05,35,986.56
2013,05,28,05,36,986.56
2013,05,28,05,37,986.56
2013,05,28,05,38,986.56
2013,05,28,05,39,986.56
2013,05,28,05,40,986.56
2013,05,28,05,41,986.56
2013,05,28,05,42,986.56
2013,05,28,05,43,986.56
2013,05,28,05,44,986.56
2013,05,28,05,45,986.56
2013,05,28,05,46,986.56
2013,05,28,05,47,986.62
2013,05,28,05,48,986.62
2013,05,28,05,49,986.62
2013,05,28,05,50,986.62
2013,05,28,05,51,986.62
2013,05,28,05,52,986.62
2013,05,28,05,53,986.62
2013,05,28,05,54,986.62
2013,05,28,05,55,986.62
2013,05,28,05,56,986.62
2013,05,28,05,57,986.62
2013,05,28,05,58,986.62
2013,05,28,05,59,986.62
2013,05,28,06,00,986.62
2013,05,28,06,01,986.62
2013,05,28,06,02,986.66
2013,05,28,06,03,986.66
2013,05,28,06,04,986.66
2013,05,28,06,05,986.66
2013,05,28,06,06,986.66
2013,05,28,06,07,986.66
2013,05,28,06,08,986.66
2013,05,28,06,09,986.66
2013,05,28,06,10,986.66
2013,05,28,06,11,986.66
2013,05,28,06,12,986.66
2013,05,28,06,13,986.66
2013,05,28,06,14,986.66
2013,05,28,06,15,986.66
2013,05,28,06,16,986.66
2013,05,28,06,17,986.73
2013,05,28,06,18,986.73
2013,05,28,06,19,986.73
2013,05,28,06,20,986.73
2013,05,28,06,21,986.73
2013,05,28,06,22,986.73
2013,05,28,06,23,986.73
2013,05,28,06,24,986.73
2013,05,28,06,25,986.73
2013,05,28,06,26,986.73
2013,05,28,06,27,986.73
2013,05,28,06,28,986.73
2013,05,28,06,29,986.73
2013,05,28,06,30,986.73
2013,05,28,06,31,986.73
2013,05,28,06,32,986.83
2013,05,28,06,33,986.83
2013,05,28,06,34,986.83
2013,05,28,06,35,986.83
2013,05,28,06,36,986.83
2013,05,28,06,37,986.83
2013,05,28,06,38,986.83
2013,05,28,06,39,986.83
2013,05,28,06,40,986.83
2013,05,28,06,41,986.83
2013,05,28,06,42,986.83
2013,05,28,06,43,986.83
2013,05,28,06,44,986.83
2013,05,28,06,45,986.83
2013,05,28,06,46,986.83
2013,05,28,06,47,986.79
2013,05,28,06,48,986.79
2013,05,28,06,49,986.79
2013,05,28,06,50,986.79
2013,05,28,06,51,986.79
2013,05,28,06,52,986.79
2013,05,28,06,53,986.79
2013,05,28,06,54,986.79
2013,05,28,06,55,986.79
2013,05,28,06,56,986.79
2013,05,28,06,57,986.79
2013,05,28,06,58,986.79
2013,05,28,06,59,986.79
2013,05,28,07,00,986.79
2013,05,28,07,01,986.79
2013,05,28,07,02,986.93
2013,05,28,07,03,986.93
2013,05,28,07,04,986.93
2013,05,28,07,05,986.93
2013,05,28,07,06,986.93
2013,05,28,07,07,986.93
2013,05,28,07,08,986.93
2013,05,28,07,09,986.93
2013,05,28,07,10,986.93
2013,05,28,07,11,986.93
2013,05,28,07,12,986.93
2013,05,28,07,13,986.93
2013,05,28,07,14,986.93
2013,05,28,07,15,986.93
2013,05,28,07,16,986.93
2013,05,28,07,17,987.03
2013,05,28,07,18,987.03
2013,05,28,07,19,987.03
2013,05,28,07,20,987.03
2013,05,28,07,21,987.03
2013,05,28,07,22,987.03
2013,05,28,07,23,987.03
2013,05,28,07,24,987.03
2013,05,28,07,25,987.03
2013,05,28,07,26,987.03
2013,05,28,07,27,987.03
2013,05,28,07,28,987.03
2013,05,28,07,29,987.03
2013,05,28,07,30,987.03
2013,05,28,07,31,987.03
2013,05,28,07,32,987.03
2013,05,28,07,33,987.03
2013,05,28,07,34,987.03
2013,05,28,07,35,987.03
2013,05,28,07,36,987.03
2013,05,28,07,37,987.03
2013,05,28,07,38,987.03
2013,05,28,07,39,987.03
2013,05,28,07,40,987.03
2013,05,28,07,41,987.03
2013,05,28,07,42,987.03
2013,05,28,07,43,987.03
2013,05,28,07,44,987.03
2013,05,28,07,45,987.03
2013,05,28,07,46,987.03
2013,05,28,07,47,987.03
2013,05,28,07,48,987.03
2013,05,28,07,49,987.03
2013,05,28,07,50,987.03
2013,05,28,07,51,987.03
2013,05,28,07,52,987.03
2013,05,28,07,53,987.03
2013,05,28,07,54,987.03
2013,05,28,07,55,987.03
2013,05,28,07,56,987.03
2013,05,28,07,57,987.03
2013,05,28,07,58,987.03
2013,05,28,07,59,987.03
2013,05,28,08,00,987.03
2013,05,28,08,01,987.03
2013,05,28,08,02,987.06
2013,05,28,08,03,987.06
2013,05,28,08,04,987.06
2013,05,28,08,05,987.06
2013,05,28,08,06,987.06
2013,05,28,08,07,987.06
2013,05,28,08,08,987.06
2013,05,28,08,09,987.06
2013,05,28,08,10,987.06
2013,05,28,08,11,987.06
2013,05,28,08,12,987.06
2013,05,28,08,13,987.06
2013,05,28,08,14,987.06
2013,05,28,08,15,987.06
2013,05,28,08,16,987.06
2013,05,28,08,17,987.13
2013,05,28,08,18,987.13
2013,05,28,08,19,987.13
2013,05,28,08,20,987.13
2013,05,28,08,21,987.13
2013,05,28,08,22,987.13
2013,05,28,08,23,987.13
2013,05,28,08,24,987.13
2013,05,28,08,25,987.13
2013,05,28,08,26,987.13
2013,05,28,08,27,987.13
2013,05,28,08,28,987.13
2013,05,28,08,29,987.13
2013,05,28,08,30,987.13
2013,05,28,08,31,987.13
2013,05,28,08,32,987.17
2013,05,28,08,33,987.17
2013,05,28,08,34,987.17
2013,05,28,08,35,987.17
2013,05,28,08,36,987.17
2013,05,28,08,37,987.17
2013,05,28,08,38,987.17
2013,05,28,08,39,987.17
2013,05,28,08,40,987.17
2013,05,28,08,41,987.17
2013,05,28,08,42,987.17
2013,05,28,08,43,987.17
2013,05,28,08,44,987.17
2013,05,28,08,45,987.17
2013,05,28,08,46,987.17
2013,05,28,08,47,987.10
2013,05,28,08,48,987.10
2013,05,28,08,49,987.10
2013,05,28,08,50,987.10
2013,05,28,08,51,987.10
2013,05,28,08,52,987.10
2013,05,28,08,53,987.10
2013,05,28,08,54,987.10
2013,05,28,08,55,987.10
2013,05,28,08,56,987.10
2013,05,28,08,57,987.10
2013,05,28,08,58,987.10
2013,05,28,08,59,987.10
2013,05,28,09,00,987.10
2013,05,28,09,01,987.10
2013,05,28,09,02,987.13
2013,05,28,09,03,987.13
2013,05,28,09,04,987.13
2013,05,28,09,05,987.13
2013,05,28,09,06,987.13
2013,05,28,09,07,987.13
2013,05,28,09,08,987.13
2013,05,28,09,09,987.13
2013,05,28,09,10,987.13
2013,05,28,09,11,987.13
2013,05,28,09,12,987.13
2013,05,28,09,13,987.13
2013,05,28,09,14,987.13
2013,05,28,09,15,987.13
2013,05,28,09,16,987.13
2013,05,28,09,17,987.13
2013,05,28,09,18,987.13
2013,05,28,09,19,987.13
2013,05,28,09,20,987.13
2013,05,28,09,21,987.13
2013,05,28,09,22,987.13
2013,05,28,09,23,987.13
2013,05,28,09,24,987.13
2013,05,28,09,25,987.13
2013,05,28,09,26,987.13
2013,05,28,09,27,987.13
2013,05,28,09,28,987.13
2013,05,28,09,29,987.13
2013,05,28,09,30,987.13
2013,05,28,09,31,987.13
2013,05,28,09,32,987.10
2013,05,28,09,33,987.10
2013,05,28,09,34,987.10
2013,05,28,09,35,987.10
2013,05,28,09,36,987.10
2013,05,28,09,37,987.10
2013,05,28,09,38,987.10
2013,05,28,09,39,987.10
2013,05,28,09,40,987.10
2013,05,28,09,41,987.10
2013,05,28,09,42,987.10
2013,05,28,09,43,987.10
2013,05,28,09,44,987.10
2013,05,28,09,45,987.10
2013,05,28,09,46,987.10
2013,05,28,09,47,987.10
2013,05,28,09,48,987.10
2013,05,28,09,49,987.10
2013,05,28,09,50,987.10
2013,05,28,09,51,987.10
2013,05,28,09,52,987.10
2013,05,28,09,53,987.10
2013,05,28,09,54,987.10
2013,05,28,09,55,987.10
2013,05,28,09,56,987.10
2013,05,28,09,57,987.10
2013,05,28,09,58,987.10
2013,05,28,09,59,987.10
2013,05,28,10,00,987.10
2013,05,28,10,01,987.10
2013,05,28,10,02,987.13
2013,05,28,10,03,987.13
2013,05,28,10,04,987.13
2013,05,28,10,05,987.13
2013,05,28,10,06,987.13
2013,05,28,10,07,987.13
2013,05,28,10,08,987.13
2013,05,28,10,09,987.13
2013,05,28,10,10,987.13
2013,05,28,10,11,987.13
2013,05,28,10,12,987.13
2013,05,28,10,13,987.13
2013,05,28,10,14,987.13
2013,05,28,10,15,987.13
2013,05,28,10,16,987.13
2013,05,28,10,17,987.33
2013,05,28,10,18,987.33
2013,05,28,10,19,987.33
2013,05,28,10,20,987.33
2013,05,28,10,21,987.33
2013,05,28,10,22,987.33
2013,05,28,10,23,987.33
2013,05,28,10,24,987.33
2013,05,28,10,25,987.33
2013,05,28,10,26,987.33
2013,05,28,10,27,987.33
2013,05,28,10,28,987.33
2013,05,28,10,29,987.33
2013,05,28,10,30,987.33
2013,05,28,10,31,987.33
2013,05,28,10,32,987.54
2013,05,28,10,33,987.54
2013,05,28,10,34,987.54
2013,05,28,10,35,987.54
2013,05,28,10,36,987.54
2013,05,28,10,37,987.54
2013,05,28,10,38,987.54
2013,05,28,10,39,987.54
2013,05,28,10,40,987.54
2013,05,28,10,41,987.54
2013,05,28,10,42,987.54
2013,05,28,10,43,987.54
2013,05,28,10,44,987.54
2013,05,28,10,45,987.54
2013,05,28,10,46,987.54
2013,05,28,10,47,987.64
2013,05,28,10,48,987.64
2013,05,28,10,49,987.64
2013,05,28,10,50,987.64
2013,05,28,10,51,987.64
2013,05,28,10,52,987.64
2013,05,28,10,53,987.64
2013,05,28,10,54,987.64
2013,05,28,10,55,987.64
2013,05,28,10,56,987.64
2013,05,28,10,57,987.64
2013,05,28,10,58,987.64
2013,05,28,10,59,987.64
2013,05,28,11,00,987.64
2013,05,28,11,01,987.64
2013,05,28,11,02,987.74
2013,05,28,11,03,987.74
2013,05,28,11,04,987.74
2013,05,28,11,05,987.74
2013,05,28,11,06,987.74
2013,05,28,11,07,987.74
2013,05,28,11,08,987.74
2013,05,28,11,09,987.74
2013,05,28,11,10,987.74
2013,05,28,11,11,987.74
2013,05,28,11,12,987.74
2013,05,28,11,13,987.74
2013,05,28,11,14,987.74
2013,05,28,11,15,987.74
2013,05,28,11,16,987.74
2013,05,28,11,17,987.81
2013,05,28,11,18,987.81
2013,05,28,11,19,987.81
2013,05,28,11,20,987.81
2013,05,28,11,21,987.81
2013,05,28,11,22,987.81
2013,05,28,11,23,987.81
2013,05,28,11,24,987.81
2013,05,28,11,25,987.81
2013,05,28,11,26,987.81
2013,05,28,11,27,987.81
2013,05,28,11,28,987.81
2013,05,28,11,29,987.81
2013,05,28,11,30,987.81
2013,05,28,11,31,987.81
2013,05,28,11,32,987.98
2013,05,28,11,33,987.98
2013,05,28,11,34,987.98
2013,05,28,11,35,987.98
2013,05,28,11,36,987.98
2013,05,28,11,37,987.98
2013,05,28,11,38,987.98
2013,05,28,11,39,987.98
2013,05,28,11,40,987.98
2013,05,28,11,41,987.98
2013,05,28,11,42,987.98
2013,05,28,11,43,987.98
2013,05,28,11,44,987.98
2013,05,28,11,45,987.98
2013,05,28,11,46,987.98
2013,05,28,11,47,988.05
2013,05,28,11,48,988.05
2013,05,28,11,49,988.05
2013,05,28,11,50,988.05
2013,05,28,11,51,988.05
2013,05,28,11,52,988.05
2013,05,28,11,53,988.05
2013,05,28,11,54,988.05
2013,05,28,11,55,988.05
2013,05,28,11,56,988.05
2013,05,28,11,57,988.05
2013,05,28,11,58,988.05
2013,05,28,11,59,988.05
2013,05,28,12,00,988.05
2013,05,28,12,01,988.05
2013,05,28,12,02,988.08
2013,05,28,12,03,988.08
2013,05,28,12,04,988.08
2013,05,28,12,05,988.08
2013,05,28,12,06,988.08
2013,05,28,12,07,988.08
2013,05,28,12,08,988.08
2013,05,28,12,09,988.08
2013,05,28,12,10,988.08
2013,05,28,12,11,988.08
2013,05,28,12,12,988.08
2013,05,28,12,13,988.08
2013,05,28,12,14,988.08
2013,05,28,12,15,988.08
2013,05,28,12,16,988.08
2013,05,28,12,17,988.28
2013,05,28,12,18,988.28
2013,05,28,12,19,988.28
2013,05,28,12,20,988.28
2013,05,28,12,21,988.28
2013,05,28,12,22,988.28
2013,05,28,12,23,988.28
2013,05,28,12,24,988.28
2013,05,28,12,25,988.28
2013,05,28,12,26,988.28
2013,05,28,12,27,988.28
2013,05,28,12,28,988.28
2013,05,28,12,29,988.28
2013,05,28,12,30,988.28
2013,05,28,12,31,988.28
2013,05,28,12,32,988.35
2013,05,28,12,33,988.35
2013,05,28,12,34,988.35
2013,05,28,12,35,988.35
2013,05,28,12,36,988.35
2013,05,28,12,37,988.35
2013,05,28,12,38,988.35
2013,05,28,12,39,988.35
2013,05,28,12,40,988.35
2013,05,28,12,41,988.35
2013,05,28,12,42,988.35
2013,05,28,12,43,988.35
2013,05,28,12,44,988.35
2013,05,28,12,45,988.35
2013,05,28,12,46,988.35
2013,05,28,12,47,988.15
2013,05,28,12,48,988.15
2013,05,28,12,49,988.15
2013,05,28,12,50,988.15
2013,05,28,12,51,988.15
2013,05,28,12,52,988.15
2013,05,28,12,53,988.15
2013,05,28,12,54,988.15
2013,05,28,12,55,988.15
2013,05,28,12,56,988.15
2013,05,28,12,57,988.15
2013,05,28,12,58,988.15
2013,05,28,12,59,988.15
2013,05,28,13,00,988.15
2013,05,28,13,01,988.15
2013,05,28,13,02,988.38
2013,05,28,13,03,988.38
2013,05,28,13,04,988.38
2013,05,28,13,05,988.38
2013,05,28,13,06,988.38
2013,05,28,13,07,988.38
2013,05,28,13,08,988.38
2013,05,28,13,09,988.38
2013,05,28,13,10,988.38
2013,05,28,13,11,988.38
2013,05,28,13,12,988.38
2013,05,28,13,13,988.38
2013,05,28,13,14,988.38
2013,05,28,13,15,988.38
2013,05,28,13,16,988.38
2013,05,28,13,17,988.55
2013,05,28,13,18,988.55
2013,05,28,13,19,988.55
2013,05,28,13,20,988.55
2013,05,28,13,21,988.55
2013,05,28,13,22,988.55
2013,05,28,13,23,988.55
2013,05,28,13,24,988.55
2013,05,28,13,25,988.55
2013,05,28,13,26,988.55
2013,05,28,13,27,988.55
2013,05,28,13,28,988.55
2013,05,28,13,29,988.55
2013,05,28,13,30,988.55
2013,05,28,13,31,988.55
2013,05,28,13,32,988.59
2013,05,28,13,33,988.59
2013,05,28,13,34,988.59
2013,05,28,13,35,988.59
2013,05,28,13,36,988.59
2013,05,28,13,37,988.59
2013,05,28,13,38,988.59
2013,05,28,13,39,988.59
2013,05,28,13,40,988.59
2013,05,28,13,41,988.59
2013,05,28,13,42,988.59
2013,05,28,13,43,988.59
2013,05,28,13,44,988.59
2013,05,28,13,45,988.59
2013,05,28,13,46,988.59
2013,05,28,13,47,988.62
2013,05,28,13,48,988.62
2013,05,28,13,49,988.62
2013,05,28,13,50,988.62
2013,05,28,13,51,988.62
2013,05,28,13,52,988.62
2013,05,28,13,53,988.62
2013,05,28,13,54,988.62
2013,05,28,13,55,988.62
2013,05,28,13,56,988.62
2013,05,28,13,57,988.62
2013,05,28,13,58,988.62
2013,05,28,13,59,988.62
2013,05,28,14,00,988.62
2013,05,28,14,01,988.62
2013,05,28,14,02,988.62
2013,05,28,14,03,988.62
2013,05,28,14,04,988.62
2013,05,28,14,05,988.62
2013,05,28,14,06,988.62
2013,05,28,14,07,988.62
2013,05,28,14,08,988.62
2013,05,28,14,09,988.62
2013,05,28,14,10,988.62
2013,05,28,14,11,988.62
2013,05,28,14,12,988.62
2013,05,28,14,13,988.62
2013,05,28,14,14,988.62
2013,05,28,14,15,988.62
2013,05,28,14,16,988.62
2013,05,28,14,17,988.72
2013,05,28,14,18,988.72
2013,05,28,14,19,988.72
2013,05,28,14,20,988.72
2013,05,28,14,21,988.72
2013,05,28,14,22,988.72
2013,05,28,14,23,988.72
2013,05,28,14,24,988.72
2013,05,28,14,25,988.72
2013,05,28,14,26,988.72
2013,05,28,14,27,988.72
2013,05,28,14,28,988.72
2013,05,28,14,29,988.72
2013,05,28,14,30,988.72
2013,05,28,14,31,988.72
2013,05,28,14,32,988.96
2013,05,28,14,33,988.96
2013,05,28,14,34,988.96
2013,05,28,14,35,988.96
2013,05,28,14,36,988.96
2013,05,28,14,37,988.96
2013,05,28,14,38,988.96
2013,05,28,14,39,988.96
2013,05,28,14,40,988.96
2013,05,28,14,41,988.96
2013,05,28,14,42,988.96
2013,05,28,14,43,988.96
2013,05,28,14,44,988.96
2013,05,28,14,45,988.96
2013,05,28,14,46,988.96
2013,05,28,14,47,989.10
2013,05,28,14,48,989.10
2013,05,28,14,49,989.10
2013,05,28,14,50,989.10
2013,05,28,14,51,989.10
2013,05,28,14,52,989.10
2013,05,28,14,53,989.10
2013,05,28,14,54,989.10
2013,05,28,14,55,989.10
2013,05,28,14,56,989.10
2013,05,28,14,57,989.10
2013,05,28,14,58,989.10
2013,05,28,14,59,989.10
2013,05,28,15,00,989.10
2013,05,28,15,01,989.10
2013,05,28,15,02,989.13
2013,05,28,15,03,989.13
2013,05,28,15,04,989.13
2013,05,28,15,05,989.13
2013,05,28,15,06,989.13
2013,05,28,15,07,989.13
2013,05,28,15,08,989.13
2013,05,28,15,09,989.13
2013,05,28,15,10,989.13
2013,05,28,15,11,989.13
2013,05,28,15,12,989.13
2013,05,28,15,13,989.13
2013,05,28,15,14,989.13
2013,05,28,15,15,989.13
2013,05,28,15,16,989.13
2013,05,28,15,17,989.13
2013,05,28,15,18,989.13
2013,05,28,15,19,989.13
2013,05,28,15,20,989.13
2013,05,28,15,21,989.13
2013,05,28,15,22,989.13
2013,05,28,15,23,989.13
2013,05,28,15,24,989.13
2013,05,28,15,25,989.13
2013,05,28,15,26,989.13
2013,05,28,15,27,989.13
2013,05,28,15,28,989.13
2013,05,28,15,29,989.13
2013,05,28,15,30,989.13
2013,05,28,15,31,989.13
2013,05,28,15,32,989.10
2013,05,28,15,33,989.10
2013,05,28,15,34,989.10
2013,05,28,15,35,989.10
2013,05,28,15,36,989.10
2013,05,28,15,37,989.10
2013,05,28,15,38,989.10
2013,05,28,15,39,989.10
2013,05,28,15,40,989.10
2013,05,28,15,41,989.10
2013,05,28,15,42,989.10
2013,05,28,15,43,989.10
2013,05,28,15,44,989.10
2013,05,28,15,45,989.10
2013,05,28,15,46,989.10
2013,05,28,15,47,989.13
2013,05,28,15,48,989.13
2013,05,28,15,49,989.13
2013,05,28,15,50,989.13
2013,05,28,15,51,989.13
2013,05,28,15,52,989.13
2013,05,28,15,53,989.13
2013,05,28,15,54,989.13
2013,05,28,15,55,989.13
2013,05,28,15,56,989.13
2013,05,28,15,57,989.13
2013,05,28,15,58,989.13
2013,05,28,15,59,989.13
2013,05,28,16,00,989.13
2013,05,28,16,01,989.13
2013,05,28,16,02,989.16
2013,05,28,16,03,989.16
2013,05,28,16,04,989.16
2013,05,28,16,05,989.16
2013,05,28,16,06,989.16
2013,05,28,16,07,989.16
2013,05,28,16,08,989.16
2013,05,28,16,09,989.16
2013,05,28,16,10,989.16
2013,05,28,16,11,989.16
2013,05,28,16,12,989.16
2013,05,28,16,13,989.16
2013,05,28,16,14,989.16
2013,05,28,16,15,989.16
2013,05,28,16,16,989.16
2013,05,28,16,17,989.16
2013,05,28,16,18,989.16
2013,05,28,16,19,989.16
2013,05,28,16,20,989.16
2013,05,28,16,21,989.16
2013,05,28,16,22,989.16
2013,05,28,16,23,989.16
2013,05,28,16,24,989.16
2013,05,28,16,25,989.16
2013,05,28,16,26,989.16
2013,05,28,16,27,989.16
2013,05,28,16,28,989.16
2013,05,28,16,29,989.16
2013,05,28,16,30,989.16
2013,05,28,16,31,989.16
2013,05,28,16,32,989.13
2013,05,28,16,33,989.13
2013,05,28,16,34,989.13
2013,05,28,16,35,989.13
2013,05,28,16,36,989.13